#timestamp,LO_Frequency,Hit 
1501732815.0,286047020.4,N
1501732815.9,286047020.4,N
1501732835.8,286047019.5,N
1501732855.6,286047019.4,N
1501732875.4,286047019.3,N
1501732895.2,286047019.2,N
1501732915.1,286047019.8,N
1501732916.0,286047019.8,N
1501732935.8,286047021.9,N
1501732955.6,286047020.9,N
1501732975.5,286047023.1,N
1501732995.3,286047021.8,N
1501733015.1,286047020.8,N
1501733035.9,286047023.6,N
1501733055.7,286047021.2,N
1501733075.5,286047022.4,N
1501733095.4,286047025.1,N
1501733115.2,286047022.2,N
1501733135.0,286047025.2,N
1501733135.9,286047025.2,N
1501733155.8,286047022.6,N
1501733175.6,286047022.7,N
1501733195.4,286047023.3,N
1501733215.2,286047020.7,N
1501733235.1,286047022.5,N
1501733236.0,286047022.5,N
1501733255.8,286047022.1,N
1501733275.6,286047023.0,N
1501733295.5,286047022.6,N
1501733315.3,286047024.7,N
1501733335.1,286047023.4,N
1501733355.9,286047022.4,N
1501733375.7,286047023.8,N
1501733395.5,286047024.2,N
1501733415.4,286047024.4,N
1501733435.2,286047022.3,N
1501733455.0,286047025.1,N
1501733455.9,286047025.1,N
1501733475.7,286047023.9,N
1501733495.6,286047026.7,N
1501733515.4,286047023.8,N
1501733535.2,286047026.4,N
1501733555.1,286047024.3,N
1501733556.0,286047024.3,N
1501733575.8,286047025.0,N
1501733595.6,286047025.2,N
1501733615.5,286047022.6,N
1501733635.3,286047022.4,N
1501733655.1,286047022.6,N
1501733675.9,286047024.5,N
1501733695.7,286047024.7,N
1501733715.5,286047024.4,N
1501733735.3,286047022.1,N
1501733755.2,286047023.3,N
1501733775.0,286047022.8,N
1501733775.9,286047022.8,N
1501733795.7,286047024.8,N
1501733815.6,286047022.1,N
1501733835.4,286047022.2,N
1501733855.2,286047026.6,N
1501733875.1,286047023.7,N
1501733876.0,286047023.7,N
1501733895.8,286047026.7,N
1501733915.6,286047024.2,N
1501733935.5,286047023.8,N
1501733955.3,286047026.6,N
1501733975.1,286047026.2,N
1501733995.8,286047026.5,N
1501734015.7,286047026.6,N
1501734035.5,286047026.4,N
1501734055.3,286047026.2,N
1501734075.2,286047026.7,N
1501734095.9,286047024.8,N
1501734115.7,286047025.1,N
1501734135.6,286047025.2,N
1501734155.4,286047022.4,N
1501734175.2,286047024.6,N
1501734195.1,286047022.8,N
1501734196.0,286047022.8,N
1501734215.8,286047026.0,N
1501734235.6,286047027.4,N
1501734255.4,286047025.9,N
1501734275.3,286047023.8,N
1501734295.1,286047023.9,N
1501734315.8,286047024.7,N
1501734335.7,286047023.9,N
1501734355.5,286047026.8,N
1501734375.3,286047025.1,N
1501734395.2,286047024.4,N
1501734415.9,286047024.4,N
1501734435.7,286047025.1,N
1501734455.6,286047023.1,N
1501734475.4,286047023.1,N
1501734495.2,286047025.0,N
1501734515.1,286047022.6,N
1501734516.0,286047022.6,N
1501734535.8,286047022.1,N
1501734555.6,286047024.6,N
1501734575.4,286047024.1,N
1501734595.3,286047022.1,N
1501734615.1,286047023.3,N
1501734635.8,286047020.6,N
1501734655.7,286047023.1,N
1501734675.5,286047023.6,N
1501734695.3,286047022.1,N
1501734715.2,286047024.0,N
1501734735.9,286047023.7,N
1501734755.7,286047024.4,N
1501734775.6,286047024.9,N
1501734795.4,286047022.5,N
1501734815.2,286047022.6,N
1501734835.0,286047025.2,N
1501734835.9,286047025.2,N
1501734855.8,286047024.8,N
1501734875.6,286047022.3,N
1501734895.4,286047022.2,N
1501734915.3,286047023.2,N
1501734935.1,286047021.0,N
1501734955.8,286047020.7,N
1501734975.7,286047019.7,N
1501734995.5,286047021.0,N
1501735015.3,286047020.8,N
1501735035.2,286047023.1,N
1501735055.9,286047025.1,N
1501735075.7,286047024.4,N
1501735095.5,286047024.2,N
1501735115.4,286047024.4,N
1501735135.2,286047025.0,N
1501735155.0,286047024.5,N
1501735155.9,286047024.5,N
1501735175.8,286047024.7,N
1501735195.6,286047022.3,N
1501735215.4,286047022.9,N
1501735235.3,286047024.8,N
1501735255.1,286047024.9,N
1501735256.0,286047024.9,N
1501735275.8,286047022.5,N
1501735295.7,286047022.2,N
1501735315.5,286047025.1,N
1501735335.3,286047024.8,N
1501735355.2,286047022.2,N
1501735375.9,286047025.1,N
1501735395.7,286047022.4,N
1501735415.6,286047022.5,N
1501735435.4,286047022.9,N
1501735455.2,286047023.1,N
1501735475.0,286047022.7,N
1501735475.9,286047022.7,N
1501735495.8,286047023.2,N
1501735515.6,286047021.6,N
1501735535.4,286047023.6,N
1501735555.3,286047023.2,N
1501735575.1,286047021.4,N
1501735595.8,286047021.5,N
1501735615.7,286047024.3,N
1501735635.5,286047025.3,N
1501735655.3,286047023.8,N
1501735675.2,286047022.3,N
1501735695.9,286047023.3,N
1501735715.7,286047023.2,N
1501735735.5,286047023.5,N
1501735755.4,286047021.4,N
1501735775.2,286047021.9,N
1501735795.0,286047021.2,N
1501735795.9,286047021.2,N
1501735815.8,286047019.0,N
1501735835.6,286047017.8,N
1501735855.4,286047017.5,N
1501735875.3,286047017.8,N
1501735895.1,286047020.0,N
1501735896.0,286047020.0,N
1501735915.8,286047019.6,N
1501735935.7,286047017.9,N
1501735955.5,286047017.9,N
1501735975.3,286047017.9,N
1501735995.2,286047020.4,N
1501736015.9,286047021.4,N
1501736035.7,286047022.6,N
1501736055.5,286047023.7,N
1501736075.4,286047026.2,N
1501736095.2,286047025.3,N
1501736115.0,286047023.8,N
1501736115.9,286047023.8,N
1501736135.8,286047025.0,N
1501736155.6,286047023.5,N
1501736175.4,286047019.3,N
1501736195.3,286047019.5,N
1501736215.1,286047019.1,N
1501736235.8,286047022.3,N
1501736255.7,286047024.9,N
1501736275.5,286047024.3,N
1501736295.3,286047022.7,N
1501736315.2,286047023.4,N
1501736335.9,286047020.7,N
1501736355.7,286047025.1,N
1501736375.6,286047022.1,N
1501736395.4,286047021.3,N
